VE2JJ-13 Weather Reports


time (UTC)temp
F
wind
direction
speed
knots
gust
knots
rain 1hr
in
rain 24hr
in
rain mn
in
humidity
%
barometer
mb
20260508005242 48 299 4.3 4.3 0.00 0.00 0.00 54 1000.5
20260508004744 49 288 0.9 4.3 0.00 0.00 0.00 53 1000.5
20260508004212 49 281 4.3 4.3 0.00 0.00 0.00 53 1000.5
20260508003645 49 260 5.2 4.3 0.00 0.00 0.00 51 1000.2
20260508003145 50 271 7.8 6.1 0.00 0.00 0.00 50 1000.2
20260508002643 50 258 10.4 8.7 0.00 0.00 0.00 49 1000.2
20260508002144 50 306 11.3 8.7 0.00 0.00 0.00 48 1000.2
20260508001612 50 263 6.1 4.3 0.00 0.00 0.00 48 1000.3
20260508001113 50 248 13.9 12.2 0.00 0.00 0.00 48 1000.3
20260508000543 50 303 11.3 10.4 0.00 0.00 0.00 48 1000.3
20260508000044 50 314 7.8 7.0 0.00 0.00 0.00 48 1000.2
20260507235512 51 260 10.4 7.0 0.00 0.00 0.00 48 1000.2
20260507235012 51 239 8.7 6.1 0.00 0.00 0.00 47 1000.1
20260507234443 51 233 7.0 6.1 0.00 0.00 0.00 47 1000.1
20260507233946 52 8 7.8 5.2 0.00 0.00 0.00 46 1000.0
20260507233441 52 307 11.3 12.2 0.00 0.00 0.00 45 1000.0
20260507232942 53 245 10.4 7.0 0.00 0.00 0.00 44 1000.0
20260507232442 53 248 7.8 7.0 0.00 0.00 0.00 43 1000.0
20260507231951 54 242 14.8 11.3 0.00 0.00 0.00 42 1000.0
20260507231413 54 259 13.0 7.8 0.00 0.00 0.00 42 1000.0
20260507230912 54 152 11.3 12.2 0.00 0.00 0.00 42 1000.0
20260507225918 53 253 11.3 8.7 0.00 0.00 0.00 46 1000.0
20260507225413 53 309 7.8 5.2 0.00 0.00 0.00 46 1000.0
20260507224915 52 262 10.4 8.7 0.00 0.00 0.00 47 1000.0
20260507224415 52 263 8.7 11.3 0.00 0.00 0.00 46 1000.0
20260507223913 52 280 8.7 14.8 0.00 0.00 0.00 46 1000.1
20260507223411 53 269 13.9 10.4 0.00 0.00 0.00 45 1000.1
20260507222412 54 248 17.4 20.0 0.00 0.00 0.00 44 1000.0
20260507221913 55 252 13.0 11.3 0.00 0.00 0.00 43 1000.0
20260507221412 55 270 15.6 15.6 0.00 0.00 0.00 42 1000.0
20260507220842 54 272 17.4 13.9 0.00 0.00 0.00 43 1000.0
20260507220342 53 202 15.6 13.9 0.00 0.00 0.00 43 999.9
20260507215845 53 270 15.6 11.3 0.00 0.00 0.00 43 999.9
20260507215311 54 248 14.8 10.4 0.00 0.00 0.00 42 999.9
20260507214814 54 248 14.8 10.4 0.00 0.00 0.00 42 999.8
20260507214241 54 222 13.0 8.7 0.00 0.00 0.00 41 999.8
20260507213741 56 225 14.8 13.9 0.00 0.00 0.00 41 999.6
20260507213241 55 254 19.1 12.2 0.00 0.00 0.00 41 999.6
20260507212742 56 247 21.7 14.8 0.00 0.00 0.00 40 999.6
20260507212241 56 209 21.7 21.7 0.00 0.00 0.00 40 999.6
20260507211743 56 232 19.1 13.9 0.00 0.00 0.00 40 999.6
20260507211241 56 280 26.9 18.2 0.00 0.00 0.00 40 999.6
20260507210741 56 232 26.1 25.2 0.00 0.00 0.00 39 999.6
20260507210241 55 261 13.9 12.2 0.00 0.00 0.00 41 999.4
20260507205741 56 197 20.0 14.8 0.00 0.00 0.00 40 999.4
20260507205243 56 184 17.4 12.2 0.00 0.00 0.00 41 999.4
20260507204712 55 213 22.6 20.9 0.00 0.00 0.00 43 999.4
20260507204211 55 207 15.6 21.7 0.00 0.00 0.00 44 999.4
20260507203711 55 303 18.2 13.0 0.00 0.00 0.00 43 999.6
20260507203211 56 234 19.1 14.8 0.00 0.00 0.00 41 999.6
20260507202858 56 237 20.0 13.9 0.00 0.00 0.00 42 999.4
20260507202711 56 237 20.0 13.9 0.00 0.00 0.00 42 999.4
20260507202217 56 233 22.6 17.4 0.00 0.00 0.00 42 999.4
20260507201715 55 270 26.9 17.4 0.00 0.00 0.00 42 999.4
20260507201211 56 270 24.3 26.1 0.00 0.00 0.00 40 999.4
20260507200641 56 224 21.7 13.9 0.00 0.00 0.00 40 999.4
20260507200110 57 245 32.2 26.1 0.00 0.00 0.00 39 999.5
20260507195611 56 252 21.7 17.4 0.00 0.00 0.00 41 999.5
20260507195114 56 190 17.4 13.9 0.00 0.00 0.00 43 999.4
20260507194610 55 313 20.9 20.9 0.00 0.00 0.00 43 999.4
20260507194110 55 233 12.2 13.9 0.00 0.00 0.00 43 999.4
20260507193540 55 220 22.6 13.0 0.00 0.00 0.00 41 999.4
20260507193043 55 217 15.6 10.4 0.00 0.00 0.00 43 999.4
20260507192541 54 297 14.8 17.4 0.00 0.00 0.00 44 999.4
20260507192041 54 290 17.4 12.2 0.00 0.00 0.00 45 999.4
20260507191541 54 304 21.7 17.4 0.00 0.00 0.00 43 999.6
20260507191040 54 262 20.0 15.6 0.00 0.00 0.00 43 999.6
20260507190541 53 239 33.9 21.7 0.00 0.00 0.00 42 999.6
20260507190041 53 225 20.0 15.6 0.00 0.00 0.00 42 999.5
20260507185540 53 215 19.1 18.2 0.00 0.00 0.00 41 999.5
20260507185042 53 254 22.6 19.1 0.00 0.00 0.00 41 999.6
20260507184542 54 212 19.1 13.0 0.00 0.00 0.00 41 999.6
20260507184044 55 266 21.7 22.6 0.00 0.00 0.00 41 999.5
20260507183540 54 256 15.6 13.9 0.00 0.00 0.00 43 999.5
20260507183010 53 210 17.4 17.4 0.00 0.00 0.00 42 999.5
20260507182511 54 242 13.9 12.2 0.00 0.00 0.00 44 999.6
20260507182011 53 214 14.8 14.8 0.00 0.00 0.00 43 999.6
20260507181512 53 210 20.9 14.8 0.00 0.00 0.00 42 999.6
20260507180940 53 142 26.1 19.1 0.00 0.00 0.00 43 999.6
20260507180411 52 203 20.9 19.1 0.00 0.00 0.00 44 999.4
20260507175910 52 263 18.2 17.4 0.00 0.00 0.00 45 999.3
20260507175410 53 226 18.2 17.4 0.00 0.00 0.00 44 999.3
20260507174914 53 238 26.1 19.1 0.00 0.00 0.00 43 999.4
20260507174410 55 248 20.9 17.4 0.00 0.00 0.00 41 999.4
20260507173912 55 212 26.9 21.7 0.00 0.00 0.00 42 999.3
20260507173410 54 247 17.4 18.2 0.00 0.00 0.00 42 999.3
20260507172412 55 218 15.6 12.2 0.00 0.00 0.00 43 999.5
20260507171910 53 242 19.1 17.4 0.00 0.00 0.00 43 999.5
20260507171339 53 246 15.6 12.2 0.00 0.00 0.00 44 999.5
20260507170810 54 206 25.2 17.4 0.00 0.00 0.00 43 999.5
20260507170348 55 242 18.2 20.9 0.00 0.00 0.00 43 999.4
20260507170310 55 242 18.2 20.9 0.00 0.00 0.00 43 999.4
20260507165810 54 215 22.6 18.2 0.00 0.00 0.00 43 999.4
20260507165342 56 215 25.2 19.1 0.00 0.00 0.00 42 999.4
20260507165309 56 215 25.2 19.1 0.00 0.00 0.00 42 999.4
20260507164811 54 206 19.1 26.9 0.00 0.00 0.00 42 999.6
20260507164311 55 265 31.3 21.7 0.00 0.00 0.00 43 999.6
20260507163811 55 248 32.2 20.0 0.00 0.00 0.00 42 999.7
20260507163310 56 246 20.0 30.4 0.00 0.01 0.00 41 999.7
20260507162812 55 210 20.0 19.1 0.00 0.01 0.00 43 999.7
20260507162240 52 259 33.9 26.9 0.00 0.01 0.00 44 999.7
20260507161742 53 248 22.6 19.1 0.00 0.01 0.00 46 999.7
20260507161241 52 223 26.1 17.4 0.00 0.01 0.00 50 999.7
20260507160740 52 184 24.3 15.6 0.00 0.01 0.00 53 999.7
20260507160240 53 218 14.8 14.8 0.00 0.01 0.00 52 999.7
20260507155740 53 315 17.4 13.9 0.00 0.02 0.00 52 999.7
20260507155240 54 231 25.2 19.1 0.00 0.02 0.00 51 999.8
20260507154741 53 240 19.1 12.2 0.00 0.02 0.00 52 999.8
20260507154239 54 278 20.9 15.6 0.00 0.02 0.00 50 999.8
20260507153740 53 285 24.3 20.9 0.00 0.03 0.00 52 999.8
20260507153240 53 250 30.4 27.8 0.00 0.03 0.00 52 999.8
20260507152739 53 250 28.7 21.7 0.00 0.04 0.00 52 999.8
20260507152240 53 236 19.1 12.2 0.00 0.04 0.00 53 999.8
20260507151741 53 228 15.6 12.2 0.00 0.05 0.00 54 999.8
20260507151240 52 58 19.1 17.4 0.00 0.05 0.00 54 999.8
20260507150741 52 206 21.7 21.7 0.00 0.06 0.00 54 999.8
20260507150238 52 226 26.1 25.2 0.00 0.06 0.00 54 999.9
20260507145739 51 238 26.1 19.1 0.00 0.06 0.00 53 999.9
20260507145240 53 210 26.9 21.7 0.00 0.06 0.00 53 999.9
20260507144741 52 270 21.7 19.1 0.00 0.07 0.00 54 999.9
20260507144241 52 197 32.2 22.6 0.00 0.07 0.00 54 999.9
20260507143739 52 207 20.9 26.9 0.00 0.08 0.00 54 999.9
20260507143239 51 195 13.0 10.4 0.00 0.08 0.00 55 999.9
20260507142712 51 238 20.9 17.4 0.00 0.08 0.00 55 1000.0
20260507142209 51 178 19.1 17.4 0.00 0.09 0.00 56 1000.0
20260507141638 51 242 15.6 11.3 0.00 0.10 0.00 56 1000.0
20260507141138 50 292 30.4 19.1 0.00 0.10 0.00 57 1000.0
20260507140638 51 315 15.6 10.4 0.00 0.11 0.00 57 1000.0
20260507140139 50 244 20.0 15.6 0.00 0.11 0.00 57 1000.0
20260507135640 50 223 22.6 14.8 0.00 0.12 0.00 56 1000.0
20260507134608 50 270 25.2 17.4 0.00 0.12 0.00 57 1000.0
20260507134108 50 257 21.7 21.7 0.00 0.12 0.00 56 1000.0
20260507133609 49 219 11.3 8.7 0.00 0.12 0.00 58 1000.1
20260507133112 49 250 15.6 11.3 0.00 0.13 0.00 57 1000.1
20260507132609 49 215 17.4 17.4 0.00 0.13 0.00 58 1000.1
20260507132108 49 73 18.2 15.6 0.00 0.13 0.00 58 1000.1
20260507131609 48 214 13.0 20.0 0.00 0.14 0.00 58 1000.1
20260507131108 49 252 22.6 20.9 0.00 0.14 0.00 58 1000.1
20260507130610 49 210 20.9 18.2 0.00 0.15 0.00 58 1000.1
20260507125538 49 185 19.1 12.2 0.00 0.16 0.00 59 1000.2
20260507124538 48 180 20.9 17.4 0.00 0.17 0.00 60 1000.2
20260507124040 47 202 14.8 8.7 0.00 0.18 0.00 61 1000.3
20260507123541 47 202 14.8 8.7 0.00 0.18 0.00 61 1000.3
20260507123038 46 215 22.6 19.1 0.00 0.18 0.00 62 1000.3
20260507122537 45 236 21.7 18.2 0.00 0.18 0.00 63 1000.2
20260507122039 45 231 12.2 20.9 0.00 0.19 0.00 64 1000.2
20260507121537 45 260 19.1 15.6 0.00 0.19 0.00 64 1000.1
20260507121041 45 193 15.6 13.9 0.00 0.20 0.00 63 1000.1
20260507120538 45 258 15.6 17.4 0.00 0.21 0.00 63 1000.1
20260507120041 45 283 15.6 17.4 0.00 0.21 0.00 63 1000.1
20260507115511 45 124 20.9 15.6 0.00 0.22 0.00 64 1000.1
20260507115007 45 236 28.7 21.7 0.00 0.22 0.00 65 1000.0
20260507114507 46 197 20.9 13.9 0.00 0.22 0.00 69 1000.0
20260507114008 46 217 10.4 7.0 0.00 0.22 0.00 77 999.9
20260507113508 46 269 8.7 7.0 0.00 0.23 0.00 79 999.9
20260507113010 46 181 17.4 13.0 0.00 0.24 0.00 79 999.9
20260507112508 46 248 11.3 13.0 0.00 0.24 0.00 80 999.8
20260507112009 46 216 12.2 12.2 0.00 0.24 0.00 80 999.8
20260507111510 47 210 14.8 12.2 0.00 0.24 0.00 80 999.8
20260507111008 46 213 18.2 14.8 0.00 0.25 0.00 81 999.8
20260507110509 46 202 24.3 14.8 0.00 0.25 0.00 82 999.8
20260507105507 46 234 10.4 12.2 0.00 0.26 0.00 83 999.4
20260507105007 46 248 8.7 8.7 0.00 0.26 0.00 84 999.5
20260507104510 46 217 10.4 8.7 0.00 0.26 0.00 84 999.5
20260507104011 46 264 7.0 4.3 0.00 0.26 0.00 84 999.4
20260507103508 46 84 8.7 7.8 0.00 0.27 0.00 84 999.4
20260507103006 46 230 7.8 7.8 0.00 0.27 0.00 83 999.4
20260507102507 46 218 13.0 7.8 0.00 0.27 0.00 83 999.4
20260507102007 46 247 13.0 8.7 0.00 0.27 0.00 83 999.4
20260507101509 46 254 12.2 10.4 0.00 0.27 0.00 83 999.4
20260507101007 46 250 12.2 8.7 0.00 0.27 0.00 83 999.4
20260507100438 46 306 8.7 7.0 0.00 0.27 0.00 86 999.6
20260507095936 46 193 4.3 2.6 0.00 0.27 0.00 87 999.6
20260507095438 46 258 13.9 8.7 0.00 0.27 0.00 87 999.6
20260507094939 46 207 10.4 7.0 0.00 0.27 0.00 87 999.6
20260507094441 46 243 13.9 12.2 0.00 0.27 0.00 87 999.6
20260507093936 46 237 6.1 7.0 0.00 0.27 0.00 88 999.5
20260507093407 46 205 13.0 10.4 0.00 0.27 0.00 88 999.5
20260507092907 46 239 10.4 7.0 0.00 0.27 0.00 88 999.5
20260507092410 46 235 7.0 7.0 0.00 0.27 0.00 89 999.3
20260507091908 45 238 8.7 7.0 0.00 0.27 0.00 89 999.3
20260507091406 45 225 8.7 7.8 0.00 0.27 0.00 89 999.3
20260507090906 45 296 5.2 4.3 0.00 0.27 0.00 89 999.3
20260507090336 45 245 4.3 2.6 0.00 0.27 0.00 90 999.2
20260507085337 45 262 5.2 2.6 0.00 0.27 0.00 90 999.2
20260507084836 45 128 5.2 4.3 0.00 0.27 0.00 90 999.3
20260507084337 45 190 7.8 6.1 0.00 0.27 0.00 90 999.3
20260507083307 45 208 8.7 4.3 0.00 0.27 0.00 91 999.4
20260507082738 45 208 7.8 6.1 0.00 0.27 0.00 91 999.6
20260507082235 45 138 2.6 4.3 0.00 0.27 0.00 92 999.6
20260507081737 45 94 7.0 6.1 0.00 0.27 0.00 92 999.6
20260507081206 45 219 7.0 6.1 0.00 0.27 0.00 92 999.7
20260507080635 44 123 4.3 2.6 0.00 0.27 0.00 92 999.7
20260507080136 44 158 0.0 1.7 0.00 0.27 0.00 92 999.8
20260507075639 44 39 0.9 2.6 0.00 0.27 0.00 92 999.8
20260507075135 44 212 2.6 2.6 0.00 0.27 0.00 93 999.8
20260507074635 44 200 7.8 7.0 0.00 0.27 0.00 93 999.8
20260507074136 43 168 2.6 2.6 0.00 0.27 0.00 94 999.8
20260507073636 43 88 0.9 1.7 0.00 0.27 0.00 94 999.7
20260507073106 43 197 1.7 4.3 0.00 0.27 0.00 94 999.7
20260507072606 43 114 0.0 0.0 0.00 0.27 0.00 94 999.7
20260507072106 43 183 2.6 2.6 0.00 0.27 0.00 94 999.7
20260507071610 42 84 0.0 0.0 0.00 0.27 0.00 94 999.7
20260507071106 42 148 0.0 0.0 0.00 0.27 0.00 94 999.7
20260507070611 42 114 0.0 0.0 0.00 0.27 0.00 93 999.7
20260507070107 42 123 0.0 0.0 0.00 0.27 0.00 93 999.7
20260507065606 43 132 0.0 0.0 0.00 0.27 0.00 93 999.7
20260507065107 43 84 0.0 2.6 0.00 0.27 0.00 93 999.8
20260507064608 43 112 0.0 0.0 0.00 0.27 0.00 92 999.8
20260507064105 43 165 0.0 0.0 0.00 0.27 0.00 92 999.8
20260507063606 43 117 4.3 4.3 0.00 0.27 0.00 92 999.8
20260507063035 43 104 0.9 0.0 0.00 0.27 0.00 92 999.8
20260507062535 43 145 1.7 1.7 0.00 0.27 0.00 92 999.9
20260507062037 43 168 0.0 0.0 0.00 0.27 0.00 92 999.9
20260507061534 44 73 0.9 0.0 0.00 0.27 0.00 92 1000.0
20260507061036 44 176 5.2 4.3 0.00 0.27 0.00 92 1000.0
20260507060537 43 187 4.3 2.6 0.00 0.27 0.00 92 1000.0
20260507060036 43 122 1.7 1.7 0.00 0.27 0.00 92 1000.1
20260507055538 43 197 2.6 2.6 0.00 0.27 0.00 92 1000.1
20260507055038 43 188 2.6 2.6 0.00 0.27 0.00 92 1000.2
20260507054505 43 190 2.6 2.6 0.00 0.27 0.00 92 1000.2
20260507054004 43 181 2.6 4.3 0.00 0.27 0.00 92 1000.2
20260507053505 43 189 0.0 0.0 0.00 0.27 0.00 92 1000.2
20260507053006 43 171 0.0 0.0 0.00 0.27 0.00 92 1000.2
20260507052505 43 161 0.0 0.0 0.00 0.27 0.00 92 1000.3
20260507052005 43 182 0.9 0.0 0.00 0.27 0.00 92 1000.3
20260507051508 43 138 0.9 1.7 0.00 0.27 0.00 92 1000.5
20260507051005 43 215 4.3 4.3 0.00 0.27 0.00 92 1000.5
20260507050505 43 183 0.0 0.0 0.00 0.27 0.00 92 1000.5
20260507045936 43 151 1.7 2.6 0.00 0.27 0.00 92 1000.7
20260507045434 43 323 2.6 4.3 0.00 0.27 0.00 92 1000.7
20260507044937 43 202 0.0 0.0 0.00 0.27 0.00 92 1000.9
20260507044434 43 155 0.9 1.7 0.00 0.27 0.00 92 1000.9
20260507043935 43 97 0.9 1.7 0.00 0.27 0.00 92 1001.0
20260507043435 43 158 0.0 0.0 0.00 0.27 0.00 92 1001.0
20260507042935 43 149 0.0 0.0 0.00 0.27 0.00 92 1001.0
20260507042434 43 160 2.6 1.7 0.00 0.27 0.00 92 1001.1
20260507041934 43 153 0.9 1.7 0.00 0.27 0.00 92 1001.1
20260507041436 43 188 0.9 1.7 0.00 0.27 0.00 92 1001.1
20260507040934 43 180 1.7 1.7 0.00 0.27 0.00 92 1001.1
20260507040406 43 145 0.0 0.0 0.00 0.27 0.00 91 1001.1
20260507035904 43 133 0.0 0.0 0.00 0.27 0.27 91 1001.1
20260507035407 43 90 0.0 0.0 0.00 0.27 0.27 91 1001.1
20260507034904 44 156 0.0 0.0 0.00 0.27 0.27 91 1001.2
20260507033904 43 112 0.0 0.0 0.00 0.27 0.27 90 1001.2
20260507033404 44 130 0.0 0.0 0.00 0.27 0.27 90 1001.2
20260507032904 44 109 0.0 0.0 0.00 0.27 0.27 89 1001.2
20260507032405 44 124 0.0 0.0 0.00 0.27 0.27 89 1001.3
20260507031404 44 106 0.0 0.0 0.00 0.27 0.27 87 1001.4
20260507030903 44 90 0.0 0.0 0.00 0.27 0.27 88 1001.4
20260507030403 45 182 0.0 0.0 0.00 0.27 0.27 88 1001.3
20260507025906 45 199 0.9 1.7 0.00 0.27 0.27 87 1001.3
20260507025335 45 148 0.0 0.0 0.00 0.27 0.27 86 1001.3
20260507024835 45 162 0.0 0.0 0.00 0.27 0.27 86 1001.3
20260507024335 45 140 1.7 1.7 0.00 0.27 0.27 86 1001.3
20260507023803 45 220 5.2 4.3 0.00 0.27 0.27 85 1001.4
20260507023303 45 207 2.6 2.6 0.00 0.27 0.27 85 1001.4
20260507022734 46 214 4.3 1.7 0.00 0.27 0.27 85 1001.6
20260507022237 46 164 4.3 4.3 0.00 0.27 0.27 85 1001.6
20260507021733 46 198 7.0 4.3 0.00 0.27 0.27 84 1001.6
20260507021234 46 180 0.9 1.7 0.00 0.27 0.27 84 1001.7
20260507020734 46 181 2.6 5.2 0.00 0.27 0.27 84 1001.7
20260507020237 46 227 4.3 5.2 0.00 0.27 0.27 83 1001.7
20260507015703 46 229 2.6 5.2 0.00 0.27 0.27 83 1001.7
20260507014705 46 223 0.9 0.0 0.00 0.27 0.27 83 1001.8
20260507014204 46 309 2.6 4.3 0.00 0.27 0.27 83 1001.8
20260507013705 46 117 1.7 1.7 0.00 0.27 0.27 83 1001.7
20260507013135 46 155 4.3 2.6 0.00 0.27 0.27 82 1001.7
20260507012635 46 179 5.2 4.3 0.00 0.27 0.27 82 1001.8
20260507010637 46 213 2.6 1.7 0.00 0.27 0.27 81 1001.6
20260507010134 46 217 2.6 5.2 0.00 0.27 0.27 80 1001.6
20260507005636 46 185 4.3 1.7 0.00 0.27 0.27 80 1001.6